N0RWU Weather Reports


Display with metric or nautical units.
time (UTC)temp
F
wind
direction
speed
MPH
gust
MPH
rain 1hr
in
rain 24hr
in
rain mn
in
humidity
%
barometer
mb
20260505100827 44 239 0.0 0.0 0.00 0.00 0.00 66 1000.9
20260505095827 43 238 0.0 0.0 0.00 0.00 0.00 65 1000.8
20260505094827 44 243 0.0 0.0 0.00 0.00 0.00 64 1000.8
20260505093827 44 209 0.0 0.0 0.00 0.00 0.00 63 1000.6
20260505091827 45 209 0.0 0.0 0.00 0.00 0.00 58 1000.4
20260505085827 46 255 1.0 2.0 0.00 0.00 0.00 57 999.7
20260505084828 46 307 1.0 2.0 0.00 0.00 0.00 56 999.4
20260505083827 47 259 1.0 2.0 0.00 0.00 0.00 55 999.4
20260505082827 47 253 1.0 2.0 0.00 0.00 0.00 55 999.4
20260505081827 48 274 2.0 2.0 0.00 0.00 0.00 54 999.3
20260505080827 48 281 2.0 2.0 0.00 0.00 0.00 52 999.1
20260505075827 49 304 2.0 3.0 0.00 0.00 0.00 51 999.0
20260505074827 50 15 4.0 4.0 0.00 0.00 0.00 50 999.0
20260505073827 50 37 2.0 3.0 0.00 0.00 0.00 49 999.4
20260505072827 50 79 2.0 3.0 0.00 0.00 0.00 48 999.9
20260505071827 51 302 5.0 6.0 0.00 0.00 0.00 47 999.7
20260505070827 51 7 2.0 2.0 0.00 0.00 0.00 47 999.5
20260505065827 51 263 3.0 4.0 0.00 0.00 0.00 47 999.9
20260505063827 52 252 3.0 4.0 0.00 0.00 0.00 47 1000.2
20260505061827 52 340 3.0 4.0 0.00 0.00 0.00 48 999.2
20260505060828 52 110 2.0 4.0 0.00 0.00 0.00 47 999.8
20260505055827 52 250 6.0 10.0 0.00 0.00 0.00 47 999.4
20260505054827 53 250 5.0 6.0 0.00 0.00 0.00 47 999.0
20260505053827 52 272 8.0 10.0 0.00 0.00 0.00 48 999.3
20260505052827 52 12 7.0 9.0 0.00 0.00 0.00 49 999.4
20260505050827 53 264 6.0 8.0 0.00 0.00 0.00 48 998.5
20260505040828 54 227 10.0 15.0 0.00 0.00 0.00 47 998.9
20260505035827 54 267 8.0 12.0 0.00 0.00 0.00 48 998.5
20260505034827 54 302 11.0 13.0 0.00 0.00 0.00 50 997.8
20260505033827 54 295 10.0 14.0 0.00 0.00 0.00 57 998.0
20260505032827 55 257 6.0 9.0 0.00 0.00 0.00 55 997.7
20260505031826 56 314 11.0 16.0 0.00 0.00 0.00 47 997.7
20260505030827 57 261 12.0 16.0 0.00 0.00 0.00 43 997.4
20260505025827 58 258 9.0 12.0 0.00 0.00 0.00 43 998.1
20260505024826 58 247 13.0 18.0 0.00 0.00 0.00 42 998.1
20260505021827 58 240 8.0 12.0 0.00 0.00 0.00 43 997.5
20260505020827 58 256 12.0 15.0 0.00 0.00 0.00 43 997.5
20260505015827 59 247 6.0 8.0 0.00 0.00 0.00 43 997.2
20260505014828 59 262 8.0 10.0 0.00 0.00 0.00 44 996.7
20260505013827 59 289 8.0 9.0 0.00 0.00 0.00 41 996.4
20260505012827 60 272 4.0 5.0 0.00 0.00 0.00 40 996.4
20260505011828 61 265 11.0 14.0 0.00 0.00 0.00 37 996.2
20260505010827 61 132 6.0 10.0 0.00 0.00 0.00 39 996.1
20260505005827 62 113 11.0 16.0 0.00 0.00 0.00 39 996.0
20260505004827 63 266 7.0 13.0 0.00 0.00 0.00 38 995.7
20260505003827 64 249 8.0 14.0 0.00 0.00 0.00 35 995.3
20260505001827 66 234 9.0 12.0 0.00 0.00 0.00 33 995.0
20260505000828 66 271 9.0 13.0 0.00 0.00 0.00 32 994.9
20260504235827 68 270 8.0 12.0 0.00 0.00 0.00 31 994.8
20260504234827 70 274 17.0 21.0 0.00 0.00 0.00 29 994.6
20260504233827 71 282 5.0 9.0 0.00 0.00 0.00 29 994.3
20260504231827 74 249 13.0 15.0 0.00 0.00 0.00 29 994.2
20260504230827 74 228 12.0 17.0 0.00 0.00 0.00 29 994.0
20260504225828 73 259 14.0 21.0 0.00 0.00 0.00 29 993.8
20260504224827 74 262 7.0 10.0 0.00 0.00 0.00 28 993.6
20260504223827 75 257 9.0 14.0 0.00 0.00 0.00 29 993.4
20260504222826 75 270 11.0 13.0 0.00 0.00 0.00 29 993.3
20260504221827 76 135 11.0 13.0 0.00 0.00 0.00 28 993.0
20260504220827 76 264 14.0 15.0 0.00 0.00 0.00 28 992.9
20260504215826 77 256 7.0 9.0 0.00 0.00 0.00 29 992.8
20260504213827 77 266 8.0 14.0 0.00 0.00 0.00 29 992.6
20260504212827 78 221 8.0 11.0 0.00 0.00 0.00 28 992.4
20260504211827 79 220 10.0 13.0 0.00 0.00 0.00 27 992.2
20260504210828 79 259 9.0 15.0 0.00 0.00 0.00 28 992.1
20260504205827 80 276 6.0 7.0 0.00 0.00 0.00 29 992.0
20260504204827 79 226 8.0 11.0 0.00 0.00 0.00 30 992.0
20260504203827 80 90 6.0 11.0 0.00 0.00 0.00 30 992.0
20260504202827 80 143 12.0 15.0 0.00 0.00 0.00 32 992.0
20260504201826 80 126 7.0 9.0 0.00 0.00 0.00 33 991.8
20260504194827 82 125 5.0 7.0 0.00 0.00 0.00 32 991.3
20260504193827 80 258 10.0 13.0 0.00 0.00 0.00 33 991.3
20260504192827 82 246 6.0 7.0 0.00 0.00 0.00 31 991.4
20260504191827 82 240 7.0 9.0 0.00 0.00 0.00 31 991.2
20260504190827 80 258 13.0 19.0 0.00 0.00 0.00 30 991.3
20260504185827 81 252 6.0 7.0 0.00 0.00 0.00 31 991.1
20260504183827 82 241 9.0 10.0 0.00 0.00 0.00 30 991.2
20260504181827 81 246 7.0 10.0 0.00 0.00 0.00 31 991.4
20260504180827 81 250 9.0 13.0 0.00 0.00 0.00 32 991.4
20260504174827 80 207 13.0 16.0 0.00 0.00 0.00 31 991.5
20260504173827 80 221 7.0 10.0 0.00 0.00 0.00 34 991.4
20260504172827 79 227 11.0 19.0 0.00 0.00 0.00 32 991.7
20260504170827 79 244 13.0 15.0 0.00 0.00 0.00 31 991.7
20260504150827 74 186 8.0 10.0 0.00 0.00 0.00 39 992.3
20260504140827 70 169 4.0 7.0 0.00 0.00 0.00 42 992.8